Language: 


Des rapports , des résumés tant et plus, au choix de chacun....


Données statistiques de la station
Quotidien Rapport Janvier 28, 2018 Unités:  Anglais    Métrique   les deux
« Précédent Jour
Suivant Jour »
Quotidien Hebdomadaire Mensuel Annuel Actuel
  Haut: Bas: Moyen:
Température: TemperatureC °F 7.2 °F 10.5 °F
Pt de rosée: DewpointC °F 7.0 °F 10.2 °F
Humidité: Humidity % 91 % 96 %
Vitesse du vent: WindSpeedKMH mph 0.0 mph 17.4 mph
Rafales: WindSpeedGustKMH mph - -
Vent:- - WSW
Pression: PressurehPa in 1027.0 in -
Précipitation: 0.3 in    
Historical Graphs
 
 
Données statistiques pour Janvier 28, 2018
Heure Température Point de rosée Pression Vent Vitesse du vent Refales Humidité Pluie (taux horaire)
TemperatureC °F DewpointC °F PressurehPa in Calm     Humidity % HourlyPrecipMM in
00:02 7.2 °F 7.0 °F 1027.0 in SSW 13.7 mph 15.8 mph 98 % 0.0 in
00:07 7.2 °F 7.0 °F 1027.0 in SW 12.6 mph 15.8 mph 98 % 0.0 in
00:12 7.3 °F 7.0 °F 1027.0 in SSW 14.0 mph 15.8 mph 98 % 0.0 in
00:17 7.3 °F 7.0 °F 1027.0 in SW 11.9 mph 20.6 mph 98 % 0.0 in
00:22 7.3 °F 7.0 °F 1027.0 in SW 16.3 mph 20.6 mph 98 % 0.0 in
00:27 7.4 °F 7.0 °F 1027.0 in SSW 13.7 mph 17.2 mph 98 % 0.0 in
00:32 7.4 °F 7.0 °F 1027.0 in SW 16.9 mph 20.9 mph 98 % 0.0 in
00:37 7.5 °F 8.0 °F 1027.0 in WSW 13.7 mph 20.9 mph 98 % 0.0 in
00:43 7.5 °F 8.0 °F 1027.0 in WSW 12.6 mph 19.5 mph 98 % 0.0 in
00:48 7.6 °F 8.0 °F 1027.0 in WSW 12.2 mph 19.5 mph 98 % 0.0 in
00:53 7.6 °F 8.0 °F 1027.0 in SW 9.7 mph 19.1 mph 98 % 0.0 in
00:58 7.7 °F 8.0 °F 1027.0 in SW 10.5 mph 19.1 mph 98 % 0.0 in
01:03 7.7 °F 8.0 °F 1027.0 in SW 10.5 mph 13.7 mph 98 % 0.0 in
01:08 7.8 °F 8.0 °F 1027.0 in SSW 9.3 mph 14.0 mph 98 % 0.0 in
01:13 7.8 °F 8.0 °F 1027.0 in SW 11.1 mph 14.0 mph 98 % 0.0 in
01:18 7.8 °F 8.0 °F 1027.0 in SSW 9.7 mph 15.8 mph 98 % 0.0 in
01:23 7.8 °F 8.0 °F 1027.0 in SW 9.0 mph 15.8 mph 98 % 0.3 in
01:28 7.9 °F 8.0 °F 1027.0 in WSW 9.0 mph 15.4 mph 98 % 0.3 in
01:33 7.9 °F 8.0 °F 1027.0 in SW 11.6 mph 15.4 mph 98 % 0.3 in
01:38 7.9 °F 8.0 °F 1027.0 in WSW 9.0 mph 13.7 mph 98 % 0.3 in
01:43 8.0 °F 8.0 °F 1027.0 in WSW 10.1 mph 12.6 mph 98 % 0.3 in
01:48 8.0 °F 8.0 °F 1027.0 in SSW 9.0 mph 12.2 mph 98 % 0.3 in
01:53 8.0 °F 8.0 °F 1027.0 in WSW 8.7 mph 11.6 mph 98 % 0.3 in
01:58 8.1 °F 8.0 °F 1027.0 in SW 13.7 mph 13.7 mph 98 % 0.3 in
02:03 8.1 °F 8.0 °F 1027.0 in WSW 13.0 mph 14.0 mph 98 % 0.3 in
02:08 8.1 °F 8.0 °F 1027.0 in WSW 11.9 mph 14.0 mph 98 % 0.3 in
02:13 8.1 °F 8.0 °F 1027.0 in SW 13.7 mph 14.8 mph 98 % 0.3 in
02:18 8.2 °F 8.0 °F 1027.0 in WSW 12.6 mph 16.9 mph 98 % 0.3 in
02:23 8.3 °F 9.0 °F 1027.0 in SW 11.6 mph 20.6 mph 98 % 0.0 in
02:28 8.4 °F 9.0 °F 1027.0 in WSW 10.5 mph 20.6 mph 98 % 0.0 in
02:33 8.4 °F 9.0 °F 1027.0 in WSW 10.1 mph 19.5 mph 98 % 0.0 in
02:34 8.4 °F 9.0 °F 1027.0 in SW 10.5 mph 19.5 mph 98 % 0.0 in
02:39 8.5 °F 9.0 °F 1027.0 in SSW 14.0 mph 19.5 mph 98 % 0.0 in
02:44 8.5 °F 9.0 °F 1027.0 in WSW 12.2 mph 17.7 mph 98 % 0.0 in
02:49 8.6 °F 9.0 °F 1027.0 in SW 9.7 mph 17.7 mph 98 % 0.0 in
02:54 8.7 °F 9.0 °F 1027.0 in SW 9.3 mph 17.2 mph 98 % 0.0 in
02:59 8.7 °F 9.0 °F 1027.0 in WSW 10.5 mph 16.9 mph 98 % 0.0 in
03:04 8.8 °F 9.0 °F 1027.0 in WSW 9.7 mph 18.0 mph 98 % 0.0 in
03:09 8.9 °F 9.0 °F 1027.0 in SW 12.6 mph 18.0 mph 98 % 0.0 in
03:14 9.0 °F 9.0 °F 1027.0 in SW 16.6 mph 17.7 mph 98 % 0.0 in
03:19 9.1 °F 9.0 °F 1027.0 in SW 15.4 mph 23.3 mph 98 % 0.0 in
03:24 9.2 °F 9.0 °F 1027.0 in WSW 13.0 mph 23.3 mph 98 % 0.0 in
03:29 9.2 °F 9.0 °F 1028.0 in SSW 14.8 mph 17.2 mph 98 % 0.0 in
03:35 9.2 °F 9.0 °F 1028.0 in SW 8.7 mph 15.8 mph 98 % 0.0 in
03:40 9.3 °F 9.0 °F 1028.0 in WSW 9.0 mph 14.0 mph 98 % 0.0 in
03:45 9.3 °F 9.0 °F 1027.0 in WSW 13.7 mph 15.1 mph 98 % 0.0 in
03:50 9.4 °F 9.0 °F 1027.0 in WSW 13.0 mph 17.2 mph 98 % 0.0 in
03:55 9.4 °F 9.0 °F 1027.0 in WSW 16.6 mph 17.2 mph 98 % 0.0 in
04:00 9.4 °F 9.0 °F 1028.0 in WSW 13.0 mph 16.6 mph 98 % 0.0 in
04:05 9.4 °F 9.0 °F 1028.0 in SW 11.6 mph 15.4 mph 98 % 0.0 in
04:10 9.4 °F 9.0 °F 1028.0 in WSW 12.2 mph 15.1 mph 98 % 0.0 in
04:15 9.5 °F 10.0 °F 1028.0 in WSW 15.1 mph 15.1 mph 98 % 0.0 in
04:20 9.5 °F 10.0 °F 1028.0 in WSW 12.6 mph 17.7 mph 98 % 0.0 in
04:25 9.6 °F 10.0 °F 1028.0 in WSW 16.9 mph 18.3 mph 98 % 0.0 in
04:30 9.7 °F 10.0 °F 1028.0 in WSW 16.3 mph 18.3 mph 98 % 0.0 in
04:35 9.7 °F 10.0 °F 1028.0 in WSW 17.7 mph 20.9 mph 98 % 0.0 in
04:40 9.8 °F 10.0 °F 1028.0 in WSW 16.9 mph 20.9 mph 98 % 0.0 in
04:45 9.9 °F 10.0 °F 1027.0 in West 17.2 mph 21.6 mph 98 % 0.0 in
04:50 10.0 °F 10.0 °F 1027.0 in WSW 16.3 mph 21.6 mph 98 % 0.0 in
04:55 10.0 °F 10.0 °F 1027.0 in WSW 16.6 mph 19.5 mph 98 % 0.0 in
05:00 10.0 °F 10.0 °F 1028.0 in WSW 13.7 mph 19.5 mph 98 % 0.0 in
05:05 10.1 °F 10.0 °F 1028.0 in West 15.1 mph 21.2 mph 98 % 0.0 in
05:11 10.1 °F 10.0 °F 1028.0 in WSW 17.7 mph 21.2 mph 98 % 0.0 in
05:16 10.2 °F 10.0 °F 1028.0 in WSW 11.6 mph 22.7 mph 98 % 0.0 in
05:21 10.2 °F 10.0 °F 1028.0 in WSW 13.7 mph 22.7 mph 98 % 0.0 in
05:26 10.2 °F 10.0 °F 1028.0 in WSW 15.8 mph 21.2 mph 98 % 0.0 in
05:31 10.2 °F 10.0 °F 1028.0 in WSW 12.2 mph 19.5 mph 98 % 0.0 in
05:36 10.2 °F 10.0 °F 1028.0 in West 12.2 mph 17.7 mph 98 % 0.0 in
05:41 10.2 °F 10.0 °F 1028.0 in WSW 10.1 mph 16.9 mph 98 % 0.0 in
05:46 10.3 °F 10.0 °F 1029.0 in WSW 10.1 mph 16.9 mph 98 % 0.0 in
05:51 10.3 °F 10.0 °F 1029.0 in West 9.0 mph 16.9 mph 98 % 0.0 in
05:56 10.3 °F 10.0 °F 1029.0 in WSW 11.1 mph 17.2 mph 98 % 0.0 in
06:01 10.3 °F 10.0 °F 1029.0 in West 10.5 mph 17.2 mph 98 % 0.0 in
06:06 10.4 °F 10.0 °F 1029.0 in West 15.4 mph 16.3 mph 98 % 0.0 in
06:11 10.4 °F 10.0 °F 1029.0 in WNW 9.7 mph 16.3 mph 98 % 0.0 in
06:16 10.4 °F 10.0 °F 1029.0 in WSW 12.2 mph 16.6 mph 98 % 0.0 in
06:21 10.4 °F 10.0 °F 1029.0 in WSW 15.4 mph 17.2 mph 98 % 0.0 in
06:26 10.4 °F 10.0 °F 1029.0 in West 16.9 mph 17.2 mph 98 % 0.0 in
06:31 10.5 °F 11.0 °F 1029.0 in West 16.3 mph 20.6 mph 98 % 0.0 in
06:36 10.5 °F 11.0 °F 1029.0 in WSW 15.1 mph 20.9 mph 98 % 0.0 in
06:37 10.5 °F 11.0 °F 1029.0 in West 16.9 mph 20.9 mph 98 % 0.0 in
06:42 10.5 °F 11.0 °F 1029.0 in West 10.1 mph 20.9 mph 98 % 0.0 in
06:48 10.5 °F 11.0 °F 1029.0 in WSW 14.0 mph 16.9 mph 98 % 0.0 in
06:53 10.5 °F 11.0 °F 1029.0 in WSW 12.6 mph 19.5 mph 98 % 0.0 in
06:58 10.4 °F 10.0 °F 1029.0 in WSW 9.3 mph 19.5 mph 98 % 0.0 in
07:03 10.4 °F 10.0 °F 1028.0 in WSW 13.0 mph 18.0 mph 98 % 0.0 in
07:08 10.4 °F 10.0 °F 1028.0 in WSW 9.3 mph 16.6 mph 98 % 0.0 in
07:13 10.4 °F 10.0 °F 1028.0 in WSW 11.6 mph 15.8 mph 98 % 0.0 in
07:18 10.4 °F 10.0 °F 1029.0 in WSW 13.0 mph 15.8 mph 98 % 0.0 in
07:23 10.4 °F 10.0 °F 1029.0 in WSW 9.3 mph 14.3 mph 98 % 0.0 in
07:28 10.4 °F 10.0 °F 1029.0 in WSW 10.5 mph 14.0 mph 98 % 0.0 in
07:33 10.5 °F 11.0 °F 1029.0 in WSW 19.8 mph 22.7 mph 98 % 0.0 in
07:38 10.6 °F 11.0 °F 1029.0 in WSW 16.3 mph 22.7 mph 98 % 0.0 in
07:43 10.6 °F 11.0 °F 1029.0 in WSW 19.8 mph 23.8 mph 98 % 0.0 in
07:48 10.6 °F 11.0 °F 1029.0 in WSW 16.3 mph 23.8 mph 98 % 0.0 in
07:53 10.6 °F 11.0 °F 1029.0 in WSW 10.8 mph 24.5 mph 98 % 0.0 in
07:58 10.6 °F 11.0 °F 1029.0 in WSW 16.3 mph 24.5 mph 98 % 0.0 in
08:03 10.6 °F 11.0 °F 1030.0 in WSW 9.0 mph 17.7 mph 98 % 0.0 in
08:08 10.5 °F 11.0 °F 1030.0 in WSW 10.5 mph 17.7 mph 98 % 0.0 in
08:13 10.5 °F 11.0 °F 1030.0 in WSW 13.7 mph 16.3 mph 98 % 0.0 in
08:18 10.5 °F 11.0 °F 1030.0 in WSW 10.1 mph 19.8 mph 98 % 0.0 in
08:23 10.4 °F 10.0 °F 1030.0 in WSW 10.1 mph 19.8 mph 98 % 0.0 in
08:28 10.4 °F 10.0 °F 1030.0 in Calm   11.6 mph 98 % 0.0 in
08:33 10.4 °F 10.0 °F 1030.0 in SW 8.7 mph 11.9 mph 98 % 0.0 in
08:38 10.4 °F 10.0 °F 1030.0 in WSW 12.2 mph 14.0 mph 98 % 0.0 in
08:43 10.4 °F 10.0 °F 1030.0 in WSW 17.2 mph 17.2 mph 98 % 0.0 in
08:48 10.4 °F 10.0 °F 1030.0 in WSW 13.7 mph 17.2 mph 98 % 0.0 in
08:53 10.5 °F 11.0 °F 1030.0 in WSW 14.0 mph 21.2 mph 98 % 0.0 in
08:58 10.5 °F 11.0 °F 1031.0 in WSW 13.0 mph 21.2 mph 98 % 0.0 in
09:03 10.6 °F 11.0 °F 1031.0 in WSW 12.6 mph 19.5 mph 98 % 0.0 in
09:08 10.6 °F 11.0 °F 1031.0 in WSW 11.9 mph 17.2 mph 98 % 0.0 in
09:13 10.6 °F 11.0 °F 1031.0 in WSW 20.9 mph 20.9 mph 98 % 0.0 in
09:18 10.6 °F 11.0 °F 1031.0 in West 23.3 mph 24.8 mph 98 % 0.0 in
09:24 10.7 °F 11.0 °F 1031.0 in West 16.9 mph 24.8 mph 98 % 0.0 in
09:29 10.7 °F 11.0 °F 1031.0 in West 15.8 mph 24.8 mph 98 % 0.0 in
09:34 10.8 °F 11.0 °F 1031.0 in West 13.0 mph 23.8 mph 98 % 0.0 in
09:39 10.8 °F 11.0 °F 1031.0 in West 12.6 mph 20.6 mph 98 % 0.0 in
09:44 10.8 °F 11.0 °F 1031.0 in WSW 13.7 mph 24.8 mph 98 % 0.0 in
09:49 10.8 °F 11.0 °F 1031.0 in WSW 15.8 mph 24.8 mph 98 % 0.0 in
09:54 10.8 °F 11.0 °F 1031.0 in WSW 19.1 mph 21.2 mph 98 % 0.0 in
09:59 10.9 °F 11.0 °F 1032.1 in West 16.3 mph 21.2 mph 98 % 0.0 in
10:04 10.9 °F 11.0 °F 1032.1 in WSW 13.0 mph 19.1 mph 98 % 0.0 in
10:09 10.9 °F 11.0 °F 1032.1 in WSW 12.2 mph 17.2 mph 98 % 0.0 in
10:14 11.0 °F 11.0 °F 1030.0 in WSW 13.0 mph 17.2 mph 98 % 0.0 in
10:19 11.0 °F 11.0 °F 1030.0 in WSW 13.7 mph 20.9 mph 98 % 0.0 in
10:24 11.0 °F 11.0 °F 1030.0 in West 21.2 mph 21.6 mph 98 % 0.0 in
10:29 11.1 °F 11.0 °F 1031.0 in WSW 17.7 mph 21.6 mph 98 % 0.0 in
10:34 11.1 °F 11.0 °F 1031.0 in West 16.3 mph 21.9 mph 98 % 0.0 in
10:39 11.2 °F 11.0 °F 1031.0 in WSW 14.0 mph 21.9 mph 98 % 0.0 in
10:45 11.2 °F 11.0 °F 1030.0 in West 13.7 mph 21.2 mph 98 % 0.0 in
10:50 11.3 °F 11.0 °F 1030.0 in WSW 11.9 mph 20.6 mph 98 % 0.0 in
10:55 11.4 °F 11.0 °F 1030.0 in West 15.8 mph 20.9 mph 98 % 0.0 in
11:00 11.4 °F 11.0 °F 1031.0 in West 17.2 mph 27.0 mph 98 % 0.0 in
11:05 11.4 °F 11.0 °F 1031.0 in West 12.6 mph 27.0 mph 97 % 0.0 in
11:10 11.5 °F 11.0 °F 1031.0 in West 15.8 mph 25.3 mph 97 % 0.0 in
11:15 11.5 °F 11.0 °F 1031.0 in WSW 21.2 mph 25.3 mph 96 % 0.0 in
11:20 11.5 °F 11.0 °F 1031.0 in WSW 17.7 mph 27.4 mph 95 % 0.0 in
11:25 11.6 °F 11.0 °F 1031.0 in West 16.3 mph 32.0 mph 95 % 0.0 in
11:30 11.7 °F 11.0 °F 1031.0 in West 11.1 mph 32.0 mph 94 % 0.0 in
11:35 11.7 °F 11.0 °F 1031.0 in West 17.7 mph 24.5 mph 95 % 0.0 in
11:40 11.8 °F 11.0 °F 1031.0 in WSW 20.1 mph 30.9 mph 94 % 0.0 in
11:45 11.9 °F 11.0 °F 1031.0 in WSW 19.5 mph 35.6 mph 93 % 0.0 in
11:50 11.9 °F 11.0 °F 1031.0 in West 20.9 mph 35.6 mph 93 % 0.0 in
11:55 12.0 °F 11.0 °F 1031.0 in WSW 23.8 mph 33.8 mph 92 % 0.0 in
12:00 12.0 °F 11.0 °F 1030.0 in West 16.9 mph 33.8 mph 93 % 0.0 in
12:06 12.0 °F 11.0 °F 1030.0 in WSW 17.7 mph 33.5 mph 93 % 0.0 in
12:11 12.1 °F 11.0 °F 1030.0 in WSW 21.2 mph 33.5 mph 92 % 0.0 in
12:16 12.2 °F 11.0 °F 1031.0 in WSW 19.1 mph 31.7 mph 92 % 0.0 in
12:21 12.2 °F 11.0 °F 1031.0 in West 20.9 mph 36.0 mph 92 % 0.0 in
12:26 12.2 °F 11.0 °F 1031.0 in WSW 23.8 mph 36.0 mph 92 % 0.0 in
12:31 12.2 °F 11.0 °F 1031.0 in West 18.0 mph 29.1 mph 92 % 0.0 in
12:36 12.2 °F 11.0 °F 1031.0 in West 16.6 mph 35.6 mph 92 % 0.0 in
12:41 12.1 °F 11.0 °F 1031.0 in West 15.8 mph 35.6 mph 92 % 0.0 in
12:46 12.2 °F 11.0 °F 1031.0 in West 24.8 mph 35.2 mph 92 % 0.0 in
12:51 12.1 °F 11.0 °F 1031.0 in West 27.7 mph 35.2 mph 92 % 0.0 in
12:56 12.1 °F 11.0 °F 1031.0 in West 20.6 mph 33.8 mph 93 % 0.0 in
13:01 12.1 °F 11.0 °F 1031.0 in West 17.7 mph 27.4 mph 93 % 0.0 in
13:06 12.1 °F 11.0 °F 1031.0 in West 28.0 mph 42.5 mph 93 % 0.0 in
13:11 12.1 °F 11.0 °F 1031.0 in WSW 21.9 mph 42.5 mph 93 % 0.0 in
13:16 12.1 °F 11.0 °F 1031.0 in West 23.3 mph 33.5 mph 93 % 0.0 in
13:21 12.1 °F 11.0 °F 1031.0 in West 17.2 mph 28.5 mph 93 % 0.0 in
13:26 12.0 °F 11.0 °F 1031.0 in West 32.0 mph 33.5 mph 93 % 0.0 in
13:31 11.9 °F 11.0 °F 1031.0 in West 30.2 mph 33.5 mph 93 % 0.0 in
13:36 11.9 °F 11.0 °F 1031.0 in West 20.9 mph 32.8 mph 93 % 0.0 in
13:41 11.8 °F 11.0 °F 1031.0 in West 23.8 mph 36.0 mph 93 % 0.0 in
13:46 11.8 °F 11.0 °F 1031.0 in West 27.0 mph 37.0 mph 93 % 0.0 in
13:51 11.8 °F 11.0 °F 1031.0 in WSW 24.5 mph 37.0 mph 93 % 0.0 in
13:56 11.8 °F 11.0 °F 1031.0 in West 21.6 mph 31.4 mph 93 % 0.0 in
14:01 11.7 °F 11.0 °F 1031.0 in WSW 30.9 mph 36.7 mph 93 % 0.0 in
14:06 11.8 °F 11.0 °F 1031.0 in WSW 28.5 mph 36.7 mph 93 % 0.0 in
14:11 11.9 °F 11.0 °F 1031.0 in West 13.7 mph 31.4 mph 93 % 0.0 in
14:16 12.0 °F 11.0 °F 1030.0 in West 13.7 mph 28.5 mph 93 % 0.0 in
14:21 12.1 °F 11.0 °F 1030.0 in West 13.7 mph 13.7 mph 93 % 0.0 in
14:26 12.1 °F 11.0 °F 1030.0 in West 13.7 mph 13.7 mph 92 % 0.0 in
14:31 12.1 °F 11.0 °F 1031.0 in West 13.7 mph 13.7 mph 92 % 0.0 in
14:36 11.9 °F 11.0 °F 1031.0 in West 13.7 mph 13.7 mph 92 % 0.0 in
14:42 11.9 °F 11.0 °F 1031.0 in West 13.7 mph 13.7 mph 92 % 0.0 in
14:47 11.8 °F 11.0 °F 1031.0 in West 13.7 mph 13.7 mph 93 % 0.0 in
14:52 11.8 °F 11.0 °F 1031.0 in West 13.7 mph 13.7 mph 93 % 0.0 in
14:57 11.8 °F 11.0 °F 1031.0 in West 13.7 mph 13.7 mph 93 % 0.0 in
15:02 11.7 °F 11.0 °F 1031.0 in West 13.7 mph 13.7 mph 93 % 0.0 in
15:07 11.8 °F 11.0 °F 1031.0 in WSW 16.3 mph 16.3 mph 93 % 0.0 in
15:12 11.9 °F 11.0 °F 1031.0 in WSW 16.3 mph 16.3 mph 93 % 0.0 in
15:17 11.9 °F 11.0 °F 1031.0 in WSW 16.3 mph 16.3 mph 92 % 0.0 in
15:22 11.9 °F 11.0 °F 1031.0 in WSW 29.9 mph 29.9 mph 92 % 0.0 in
15:27 11.9 °F 11.0 °F 1031.0 in WSW 36.0 mph 36.0 mph 92 % 0.0 in
15:32 11.8 °F 10.0 °F 1031.0 in West 38.5 mph 38.5 mph 92 % 0.0 in
15:37 11.7 °F 10.0 °F 1031.0 in WSW 35.2 mph 38.5 mph 92 % 0.0 in
15:42 11.7 °F 10.0 °F 1031.0 in West 32.0 mph 38.5 mph 92 % 0.0 in
15:47 11.8 °F 11.0 °F 1031.0 in West 32.0 mph 35.2 mph 93 % 0.0 in
15:52 11.8 °F 10.0 °F 1031.0 in West 32.8 mph 32.8 mph 92 % 0.0 in
15:57 11.8 °F 10.0 °F 1031.0 in West 29.9 mph 32.8 mph 92 % 0.0 in
16:03 11.8 °F 11.0 °F 1030.0 in West 29.9 mph 32.8 mph 93 % 0.0 in
16:08 11.8 °F 11.0 °F 1030.0 in West 29.9 mph 29.9 mph 93 % 0.0 in
16:13 11.8 °F 10.0 °F 1030.0 in West 29.9 mph 29.9 mph 92 % 0.0 in
16:18 11.7 °F 10.0 °F 1031.0 in West 29.9 mph 29.9 mph 92 % 0.0 in
16:23 11.7 °F 10.0 °F 1031.0 in West 29.9 mph 29.9 mph 92 % 0.0 in
16:28 11.7 °F 10.0 °F 1031.0 in West 29.9 mph 29.9 mph 92 % 0.0 in
16:33 11.6 °F 10.0 °F 1031.0 in West 29.9 mph 29.9 mph 92 % 0.0 in
16:38 11.6 °F 10.0 °F 1031.0 in WSW 36.4 mph 36.4 mph 92 % 0.0 in
16:43 11.5 °F 10.0 °F 1031.0 in West 32.0 mph 36.4 mph 91 % 0.0 in
16:48 11.5 °F 10.0 °F 1031.0 in West 27.7 mph 36.4 mph 92 % 0.0 in
16:53 11.4 °F 10.0 °F 1031.0 in WSW 20.1 mph 32.0 mph 93 % 0.0 in
16:58 11.4 °F 10.0 °F 1031.0 in WSW 24.8 mph 38.1 mph 93 % 0.0 in
17:03 11.3 °F 10.0 °F 1031.0 in WSW 27.7 mph 38.1 mph 94 % 0.0 in
17:08 11.3 °F 10.0 °F 1031.0 in WSW 20.1 mph 28.5 mph 94 % 0.0 in
17:13 11.2 °F 10.0 °F 1031.0 in WSW 32.8 mph 36.7 mph 94 % 0.0 in
17:18 11.2 °F 10.0 °F 1031.0 in WSW 27.7 mph 36.7 mph 94 % 0.0 in
17:23 11.2 °F 10.0 °F 1031.0 in WSW 21.2 mph 38.5 mph 94 % 0.0 in
17:28 11.2 °F 10.0 °F 1031.0 in WSW 28.8 mph 38.5 mph 94 % 0.0 in
17:34 11.1 °F 10.0 °F 1031.0 in WSW 16.6 mph 30.2 mph 94 % 0.0 in
17:39 11.1 °F 10.0 °F 1031.0 in WSW 27.7 mph 30.2 mph 94 % 0.0 in
17:44 11.0 °F 10.0 °F 1031.0 in WSW 28.5 mph 32.3 mph 94 % 0.0 in
17:49 11.0 °F 10.0 °F 1031.0 in WSW 28.5 mph 37.0 mph 94 % 0.0 in
17:54 10.9 °F 10.0 °F 1031.0 in WSW 20.6 mph 37.0 mph 95 % 0.0 in
17:59 10.9 °F 10.0 °F 1031.0 in WSW 24.5 mph 31.4 mph 95 % 0.0 in
18:04 10.9 °F 10.0 °F 1031.0 in WSW 24.5 mph 31.7 mph 95 % 0.0 in
18:09 10.9 °F 11.0 °F 1031.0 in WSW 16.3 mph 31.7 mph 96 % 0.0 in
18:14 10.9 °F 11.0 °F 1030.0 in WSW 17.7 mph 27.7 mph 96 % 0.0 in
18:19 10.8 °F 10.0 °F 1030.0 in WSW 16.9 mph 24.5 mph 96 % 0.0 in
18:24 10.8 °F 10.0 °F 1030.0 in WSW 16.3 mph 21.2 mph 96 % 0.0 in
18:28 10.8 °F 10.0 °F 1030.0 in WSW 17.2 mph 22.4 mph 96 % 0.0 in
18:33 10.8 °F 10.0 °F 1031.0 in WSW 15.8 mph 23.3 mph 96 % 0.0 in
18:38 10.8 °F 10.0 °F 1031.0 in WSW 19.8 mph 23.3 mph 97 % 0.0 in
18:43 10.8 °F 10.0 °F 1031.0 in WSW 17.7 mph 20.6 mph 97 % 0.0 in
18:48 10.8 °F 10.0 °F 1031.0 in WSW 12.6 mph 20.6 mph 97 % 0.0 in
18:53 10.8 °F 10.0 °F 1031.0 in West 16.3 mph 17.2 mph 97 % 0.0 in
18:58 10.8 °F 10.0 °F 1031.0 in WSW 15.8 mph 17.2 mph 97 % 0.0 in
19:03 10.8 °F 10.0 °F 1031.0 in WSW 16.6 mph 18.0 mph 97 % 0.0 in
19:08 10.8 °F 10.0 °F 1031.0 in West 21.9 mph 21.9 mph 97 % 0.0 in
19:13 10.8 °F 10.0 °F 1031.0 in WSW 19.5 mph 22.4 mph 97 % 0.0 in
19:18 10.9 °F 11.0 °F 1031.0 in WSW 21.2 mph 22.4 mph 97 % 0.0 in
19:23 10.9 °F 11.0 °F 1031.0 in WSW 23.8 mph 23.8 mph 97 % 0.0 in
19:28 10.9 °F 11.0 °F 1031.0 in WSW 16.9 mph 23.8 mph 97 % 0.0 in
19:33 10.9 °F 11.0 °F 1031.0 in WSW 17.7 mph 24.8 mph 97 % 0.0 in
19:38 10.9 °F 11.0 °F 1031.0 in WSW 20.6 mph 24.8 mph 97 % 0.0 in
19:43 10.9 °F 11.0 °F 1031.0 in WSW 23.0 mph 26.2 mph 97 % 0.0 in
19:49 10.9 °F 11.0 °F 1031.0 in WSW 16.6 mph 26.2 mph 97 % 0.0 in
19:54 10.8 °F 10.0 °F 1031.0 in WSW 23.3 mph 31.7 mph 97 % 0.0 in
19:59 10.8 °F 11.0 °F 1031.0 in WSW 28.5 mph 31.7 mph 98 % 0.0 in
20:04 10.8 °F 11.0 °F 1031.0 in WSW 16.9 mph 28.5 mph 98 % 0.0 in
20:09 10.8 °F 11.0 °F 1031.0 in WSW 25.3 mph 28.5 mph 98 % 0.0 in
20:14 10.8 °F 11.0 °F 1030.0 in West 19.8 mph 28.5 mph 98 % 0.0 in
20:19 10.8 °F 11.0 °F 1030.0 in WSW 25.9 mph 28.5 mph 98 % 0.0 in
20:24 10.8 °F 11.0 °F 1030.0 in West 22.7 mph 27.4 mph 98 % 0.0 in
20:29 10.7 °F 11.0 °F 1030.0 in WSW 15.4 mph 27.4 mph 98 % 0.0 in
20:34 10.7 °F 11.0 °F 1030.0 in WSW 16.9 mph 27.7 mph 98 % 0.0 in
20:39 10.7 °F 11.0 °F 1030.0 in WSW 24.8 mph 32.0 mph 98 % 0.0 in
20:44 10.7 °F 11.0 °F 1030.0 in WSW 20.9 mph 33.1 mph 98 % 0.0 in
20:49 10.7 °F 11.0 °F 1030.0 in WSW 25.6 mph 33.1 mph 98 % 0.0 in
20:54 10.7 °F 11.0 °F 1030.0 in WSW 24.8 mph 28.8 mph 98 % 0.0 in
20:59 10.6 °F 11.0 °F 1031.0 in WSW 20.6 mph 26.7 mph 98 % 0.0 in
21:04 10.6 °F 11.0 °F 1031.0 in WSW 15.8 mph 25.3 mph 98 % 0.0 in
21:09 10.6 °F 11.0 °F 1031.0 in WSW 20.6 mph 25.3 mph 98 % 0.0 in
21:14 10.6 °F 11.0 °F 1031.0 in WSW 21.2 mph 24.8 mph 98 % 0.0 in
21:20 10.6 °F 11.0 °F 1031.0 in WSW 17.7 mph 24.8 mph 98 % 0.0 in
21:25 10.6 °F 11.0 °F 1031.0 in WSW 20.1 mph 24.5 mph 98 % 0.0 in
21:30 10.6 °F 11.0 °F 1031.0 in SW 14.0 mph 24.5 mph 98 % 0.0 in
21:35 10.6 °F 11.0 °F 1031.0 in WSW 20.9 mph 23.8 mph 98 % 0.0 in
21:40 10.6 °F 11.0 °F 1031.0 in WSW 21.2 mph 23.8 mph 98 % 0.0 in
21:45 10.6 °F 11.0 °F 1030.0 in WSW 19.8 mph 23.8 mph 98 % 0.0 in
21:50 10.7 °F 11.0 °F 1030.0 in WSW 13.0 mph 24.8 mph 98 % 0.0 in
21:56 10.7 °F 11.0 °F 1030.0 in WSW 16.9 mph 24.8 mph 98 % 0.0 in
22:01 10.7 °F 11.0 °F 1030.0 in WSW 17.7 mph 21.2 mph 98 % 0.0 in
22:06 10.8 °F 11.0 °F 1030.0 in WSW 17.7 mph 20.9 mph 98 % 0.0 in
22:11 10.8 °F 11.0 °F 1030.0 in WSW 19.5 mph 21.9 mph 98 % 0.0 in
22:16 10.8 °F 11.0 °F 1031.0 in WSW 20.6 mph 22.7 mph 98 % 0.0 in
22:21 10.8 °F 11.0 °F 1031.0 in SW 13.0 mph 22.7 mph 98 % 0.0 in
22:26 10.8 °F 11.0 °F 1031.0 in WSW 17.7 mph 20.6 mph 98 % 0.0 in
22:31 10.8 °F 11.0 °F 1031.0 in WSW 17.2 mph 20.1 mph 98 % 0.0 in
22:36 10.8 °F 11.0 °F 1031.0 in WSW 12.6 mph 19.5 mph 98 % 0.0 in
22:41 10.9 °F 11.0 °F 1031.0 in WSW 13.0 mph 21.2 mph 98 % 0.0 in
22:46 10.8 °F 11.0 °F 1031.0 in SW 14.8 mph 21.2 mph 98 % 0.0 in
22:51 10.9 °F 11.0 °F 1031.0 in WSW 16.6 mph 20.1 mph 98 % 0.0 in
22:56 10.9 °F 11.0 °F 1031.0 in WSW 15.8 mph 27.0 mph 98 % 0.0 in
23:01 10.9 °F 11.0 °F 1031.0 in WSW 20.6 mph 29.1 mph 98 % 0.0 in
23:06 10.9 °F 11.0 °F 1031.0 in West 20.9 mph 29.1 mph 98 % 0.0 in
23:11 10.9 °F 11.0 °F 1031.0 in WSW 23.8 mph 32.3 mph 98 % 0.0 in
23:16 11.0 °F 11.0 °F 1031.0 in WSW 22.4 mph 32.3 mph 98 % 0.0 in
23:22 11.1 °F 11.0 °F 1031.0 in WSW 22.7 mph 31.7 mph 98 % 0.0 in
23:27 11.1 °F 11.0 °F 1031.0 in WSW 21.9 mph 31.7 mph 97 % 0.0 in
23:32 11.1 °F 11.0 °F 1031.0 in West 28.5 mph 29.1 mph 97 % 0.0 in
23:37 11.1 °F 11.0 °F 1031.0 in WSW 20.6 mph 32.0 mph 97 % 0.0 in
23:42 11.1 °F 11.0 °F 1031.0 in WSW 13.0 mph 32.0 mph 97 % 0.0 in
23:47 11.1 °F 11.0 °F 1031.0 in West 23.0 mph 28.5 mph 97 % 0.0 in
23:52 11.1 °F 11.0 °F 1031.0 in WSW 13.7 mph 28.5 mph 97 % 0.0 in
23:57 11.1 °F 11.0 °F 1031.0 in WSW 16.6 mph 27.7 mph 97 % 0.0 in
Le Gheer Warneton
Courtoisie de Weather Underground - 2.25 mb

Mise a jour : 24/02/2018 15:15:11
Généré par Cumulus 1.9.4 (1099)